Regional Weather Roundup
Issued by NWS

Home | Current Version | Previous Version | Text Only | Print | Product List | Glossary Off
Versions: 1 2 3 4 5 6 7 8 9 10 11 12 13 14 15 16 17 18 19 20 21 22 23 24 25 26 27 28 29 30 31 32 33 34 35 36 37 38 39 40 41 42 43 44 45 46 47 48 49 50

000
ASUS43 KOAX 062010
RWRNE

WEATHER ROUNDUP FOR NEBRASKA
NATIONAL WEATHER SERVICE OMAHA NE
200 PM CST FRI MAR 06 2015

NOTES: SATELLITE DATA IS BEING USED TO AUGMENT CLOUD COVER ABOVE
       12000 FEET.
       "FAIR" INDICATES FEW OR NO CLOUDS BELOW 12,000 FEET WITH NO
       SIGNIFICANT WEATHER AND/OR OBSTRUCTIONS TO VISIBILITY.

  * THESE STATIONS DO NOT REPORT WEATHER SUCH AS RAIN...SNOW OR FOG.

NEZ001>004-019>022-054>056-062100-
NEBRASKA PANHANDLE

CITY           SKY/WX    TMP DP  RH WIND       PRES   REMARKS
SCOTTSBLUFF    SUNNY     57  16  20 W18G24    30.21F
ALLIANCE       SUNNY     57  14  18 NW15G28   30.18
CHADRON        PTSUNNY   51  24  34 W21       30.19
KIMBALL        SUNNY     52  16  23 NW13G24   30.22F
SIDNEY         SUNNY     57  16  20 NW14G22   30.23
$$

NEZ057>060-069>072-079>082-062100-
SOUTHWEST NEBRASKA

CITY           SKY/WX    TMP DP  RH WIND       PRES   REMARKS
NORTH PLATTE   SUNNY     61  16  17 W14G25    30.18F
IMPERIAL         N/A     60  14  16 W10G18    30.21
LEXINGTON      SUNNY     61  17  18 NW21      30.18F
MCCOOK         SUNNY     63  17  17 W15       30.21
OGALLALA       SUNNY     60  17  18 NW15G23   30.20F
$$

NEZ005>010-023>029-035>040-094-062100-
NORTH CENTRAL NEBRASKA

CITY           SKY/WX    TMP DP  RH WIND       PRES   REMARKS
VALENTINE      MOSUNNY   57  17  21 W16G25    30.12F
AINSWORTH      MOSUNNY   57  15  18 W9G24     30.12F
BROKEN BOW     SUNNY     62  19  19 W20G28    30.15
O`NEILL        SUNNY     60  16  18 W14G22    30.12F
ORD            SUNNY     60  13  15 NW15G23   30.13
THEDFORD       SUNNY     61  19  20 W16G24    30.15F
$$

NEZ041-046>049-061>064-073>077-083>087-062100-
SOUTH CENTRAL NEBRASKA

CITY           SKY/WX    TMP DP  RH WIND       PRES   REMARKS
GRAND ISLAND   SUNNY     61  15  16 W14G25    30.16F
AURORA         SUNNY     61  13  15 SW12G22   30.16F
HASTINGS       SUNNY     60  11  14 W14G24    30.17
HEBRON         SUNNY     61   8  12 W10G17    30.19F
HOLDREGE       SUNNY     59  17  19 NW12G23   30.18F
KEARNEY *      SUNNY     59  19  21 W12G17    30.17F
YORK           SUNNY     59  14  17 W15       30.16F
$$

NEZ011>018-030>034-042>045-062100-
NORTHEAST NEBRASKA

CITY           SKY/WX    TMP DP  RH WIND       PRES   REMARKS
NORFOLK        SUNNY     61  17  18 W13       30.11
ALBION         SUNNY     60  10  14 NW16      30.12F
BLAIR          SUNNY     61  16  17 W18G26    30.13F
COLUMBUS *     SUNNY     63  18  17 W13       30.15F
FREMONT        MOSUNNY   62  13  14 W20       30.13F
TEKAMAH        MOSUNNY   63  19  18 W18G25    30.10
WAYNE          PTSUNNY   60  18  19 NW18G25   30.11F
$$

NEZ050>053-065>068-078-088>093-062100-
SOUTHEAST NEBRASKA

CITY           SKY/WX    TMP DP  RH WIND       PRES   REMARKS
LINCOLN        SUNNY     62  16  16 SW14      30.17
OMAHA EPPLEY   MOSUNNY   60  19  20 SW10      30.13F
BEATRICE       SUNNY     61  17  18 W16G22    30.18F
FALLS CITY     SUNNY     61  17  18 W13       30.20F
NEBRASKA CITY  SUNNY     61   2   9 W17G29    30.17F
PLATTSMOUTH    SUNNY     59  10  14 SW18      30.16F
$$

NEZ044-045-051>053-067-062100-
OMAHA AREA

CITY           SKY/WX    TMP DP  RH WIND       PRES   REMARKS
OMAHA EPPLEY   MOSUNNY   60  19  20 SW10      30.13F
BLAIR          SUNNY     61  16  17 W18G26    30.13F
FREMONT        MOSUNNY   62  13  14 W20       30.13F
MILLARD        SUNNY     61  18  18 W10G22    30.14F
OFFUTT AFB     SUNNY     60  19  20 SW13G22   30.14F
PLATTSMOUTH    SUNNY     59  10  14 SW18      30.16F
WAHOO          FAIR      62   8  12 W16G22    30.13F
$$



USA.gov is the U.S. government's official web portal to all federal, state and local government web resources and services.